Location: Hobi?a Gr?di?te
(45.4833°N, 22.7833°E)
Time: 21:14:29
(UTC+00:00)

BREEZE-M DEB (TANK) - Pass Details

Date: 28 January 2023
Orbit: 426 x 13838 km, 45.9° (Epoch: 20 March)

Event Time Altitude Azimuth Distance (km) Brightness Sun altitude
Rises 17:58:48 0° 277° (W) 2,600 7.1 -26.2°
Reaches altitude 10° 18:00:16 10° 277° (W) 1,920 6.1 -26.5°
Maximum altitude 18:04:05 88° 5° (N) 950 3.3 -27.1°
Enters shadow 18:05:00 66° 94° (E) 1,143 3.5 -27.3°
